PROFILE

 METAR AND TAF INFORMATION
ADDS - METARS form results

(0847 UTC 25 January 2022)
http://aviationweather.gov/metar/data/
 
KRDD 250753Z AUTO 00000KT 9SM CLR 03/01 A3008 RMK AO2 SLP186 T00330006 401720006
KRDD 250520Z 2506/2606 VRB04KT P6SM SKC FM251200 36010KT P6SM SKC FM251700 36015G22KT P6SM SKC FM252300 01012KT P6SM SKC 

 AIRPORT MAP

 RUNWAY INFORMATION
Runway 12 Runway length 5067 ft Runway width 150 ft
Runway elevation 500 ft Runway displaced threshold 0 ft Runway heading 140
Runway 30 Runway length 5067 ft Runway width 150 ft
Runway elevation 492 ft Runway displaced threshold 498 ft Runway heading 320
Runway 16 Runway length 7003 ft Runway width 150 ft
Runway elevation 505 ft Runway displaced threshold 0 ft Runway heading 180
Runway 34 Runway length 7003 ft Runway width 150 ft
Runway elevation 491 ft Runway displaced threshold 0 ft Runway heading 360

 AIRPORT FREQUENCIES
Type ATIS Name ATIS Frequency 124.1 MHZ
Type CNTR Name OAKLAND CN Frequency 132.2 MHZ
Type CTAF Name CTAF Frequency 119.8 MHZ
Type GND Name GND Frequency 121.7 MHZ
Type RDO Name RANCHO RDO Frequency 108.4 MHZ
Type TWR Name TWR Frequency 119.8 MHZ
Type UNIC Name UNICOM Frequency 122.95 MHZ

 AIRPORT NEAR NAVIGATION AIDS
Type NDB Name Lassn Frequency 367 KHZ
Type VOR-DME Name Redding Frequency 108400 KHZ